Location: Caltech
(34.1382°N, 118.1253°W)
Time: 22:15:19
(UTC-07:00)

Daily predictions for brighter satellites

Satellite Brightness Start Highest point End
(mag) Time Altitude Azimuth Time Altitude Azimuth Time Altitude Azimuth
OAO 3 Rocket 4.4 19:56:03 10° W 20:00:18 32° SSW 20:04:29 10° SE
Cosmos 1908 Rocket 4.5 19:59:18 10° SSW 20:03:35 54° W 20:07:52 10° N
Resurs 1-3 4.2 20:02:16 10° SE 20:06:17 37° ENE 20:10:19 10° N
Cosmos 1812 2.7 20:07:33 10° N 20:11:27 84° E 20:15:18 10° S
DELTA 2 R/B (1) 4.0 20:06:54 10° WNW 20:12:26 57° NNE 20:17:57 10° E
BREEZE-M DEB (TANK) 1.8 20:11:29 10° SW 20:13:51 83° SE 20:18:39 10° NE
Cosmos 1602 4.3 20:15:03 10° SSE 20:18:34 35° E 20:22:05 10° NNE
SJ-6B 3.7 20:15:00 10° S 20:18:56 55° W 20:22:57 10° NNW
SeaSat 1 2.4 20:14:45 10° NNE 20:19:38 61° ESE 20:24:29 10° SSW
Meteor 1-11 Rocket 4.4 20:14:49 10° SSE 20:20:02 34° E 20:25:11 10° NNE
Cosmos 2360 4.4 20:14:48 10° SSW 20:20:30 81° WNW 20:26:13 10° NNE
Spot 2 Rocket 3.7 20:16:15 10° SSE 20:21:12 54° ENE 20:26:10 10° N
Cosmos 2297 Rocket 3.9 20:20:50 10° NW 20:25:53 34° WSW 20:30:54 10° SSW
Cosmos 1140 Rocket 4.2 20:21:27 10° N 20:26:13 35° ENE 20:30:05 14° SE
Lacrosse 5 2.8 20:25:41 10° S 20:29:50 26° ESE 20:34:00 10° ENE
ERBS 4.3 20:26:51 10° WSW 20:30:02 33° NW 20:33:14 10° NNE
NOSS 2-3 (C) 4.2 20:26:49 10° S 20:31:01 38° ESE 20:35:39 10° NE
Cosmos 1954 Rocket 4.3 20:27:35 10° N 20:32:44 48° ENE 20:37:02 14° SE
Resurs 01 Rocket 1.6 20:30:33 10° SSE 20:35:00 90° NNW 20:39:28 10° NNW
Cosmos 1939 Rocket 3.5 20:33:14 17° SE 20:35:49 35° ENE 20:39:26 10° N
Okean 1 Rocket 4.4 20:35:39 18° ESE 20:36:29 19° E 20:39:33 10° NE
Tiangong 1 3.5 20:37:41 10° NNW 20:39:12 14° N 20:40:43 10° NE
Cosmos 921 Rocket 4.4 20:36:04 10° SW 20:39:59 39° WNW 20:43:56 10° N
S3M 4.2 20:34:28 10° N 20:40:35 52° E 20:46:32 11° SSE
Meteor 2-11 Rocket 4.4 20:35:42 10° N 20:41:47 73° E 20:47:48 10° SSE
Cosmos 44 3.4 20:38:19 10° NNW 20:42:40 51° ENE 20:45:20 22° SE
Cosmos 1300 Rocket 4.1 20:39:59 15° SSE 20:43:03 34° E 20:46:58 10° NNE
Cosmos 1553 Rocket 4.0 20:37:33 10° N 20:43:38 60° E 20:49:36 10° SSE
Okean 1 3.4 20:39:40 10° N 20:43:39 78° W 20:47:36 10° S
Cosmos 1536 3.5 20:41:58 19° SE 20:44:13 33° E 20:47:54 10° NNE
Cosmos 2266 Rocket 4.3 20:40:53 10° SSE 20:46:28 40° E 20:52:02 10° NNE
Cosmos 2322 Rocket 2.2 20:41:05 10° S 20:46:42 65° ESE 20:52:21 10° NNE
ERS-1 Rocket 4.4 20:46:16 18° E 20:47:42 21° ENE 20:51:21 10° NNE
Lacrosse 5 rocket 1.6 20:46:30 10° NNW 20:50:05 44° NE 20:51:33 29° E
Envisat 2.9 20:45:07 10° SSE 20:50:10 82° ENE 20:55:16 10° N
Cosmos 2151 Rocket 3.5 20:45:55 10° S 20:50:18 85° E 20:54:43 10° N
Cosmos 2263 Rocket 3.4 20:46:52 10° N 20:51:34 26° ENE 20:53:38 21° E
Helios 1B rocket 2.8 20:48:37 10° NNE 20:52:29 39° E 20:54:24 24° SSE
Cosmos 1975 Rocket 4.4 20:50:14 10° NNW 20:54:24 40° W 20:58:32 10° SSW
SL-16 R/B 2.1 20:51:05 10° SSW 20:56:44 80° ESE 21:02:25 10° NNE
Meteor 1-19 Rocket 4.3 20:51:20 10° N 20:57:11 68° E 21:01:38 17° SSE
GPS 2-05 Rocket1 2.9 20:54:37 10° W 20:57:57 65° N 20:59:06 36° ENE
OAO 1 Rocket 4.4 20:58:10 10° WSW 21:03:26 62° SSE 21:06:09 28° E
YAOGAN 6 2.5 21:06:29 50° SE 21:07:06 61° ENE 21:10:36 10° N
USA 186 3.6 21:04:22 10° SSW 21:07:20 31° W 21:10:24 10° NNW
ATLAS 3B R/B 4.2 21:03:55 10° N 21:08:25 18° NE 21:11:07 15° ENE
NOSS 2-3 (D) 3.7 21:06:04 10° SSW 21:10:37 89° WNW 21:15:45 10° NNE
Skynet4D Del rocket 4.3 21:08:28 10° WSW 21:14:52 44° S 21:16:44 35° SE
CZ-4C R/B 4.5 21:09:03 10° NW 21:15:31 31° WSW 21:22:21 10° S
Intelsat 5-1 Rocket 4.3 20:55:48 10° WSW 21:16:52 47° S 21:20:48 31° SE
Cosmos 1110 Rocket 4.2 21:17:33 42° ESE 21:17:52 42° ESE 21:22:44 10° NNE
SJ-11-01 4.4 21:15:39 25° S 21:18:22 74° WSW 21:23:02 10° NNW
Cosmos 1536 Rocket 3.6 21:14:24 10° N 21:18:43 78° W 21:20:38 33° S
Cosmos 2360 Rocket 2.3 21:19:31 35° SSE 21:21:23 48° ESE 21:26:46 10° NNE
Meteor 1-5 Rocket 3.9 21:19:27 22° S 21:22:59 74° E 21:28:16 10° NNE
BREEZE-M DEB (TANK) 4.1 21:19:53 10° NW 21:24:08 83° SW 21:32:22 28° SE
Helios 1A 2.9 21:25:07 52° S 21:26:07 86° W 21:30:23 10° NNW
Cosmos 1850 Rocket 3.9 21:24:48 10° NNW 21:30:09 77° ENE 21:31:25 52° SE
Cosmos 1331 Rocket 4.1 21:34:09 52° E 21:34:09 52° E 21:38:51 10° NNE
Meteor 2-4 Rocket 3.8 21:30:22 10° NNW 21:35:56 77° W 21:38:26 35° S
ATLAS 2AS CENTAUR R/B 3.0 21:29:03 10° SSW 21:36:35 87° WNW 21:44:43 10° NNE
Cosmos 44 Rocket 4.3 21:32:36 10° NW 21:37:01 39° WSW 21:38:43 29° SSW
NOAA 11 4.1 21:37:36 55° SE 21:38:49 77° ENE 21:44:20 10° N
Atlas Centaur 2 2.6 21:34:38 10° W 21:42:26 63° S 21:43:52 52° SE
Cosmos 1238 Rocket 4.5 21:46:44 10° N 21:52:52 43° ENE 21:52:52 43° ENE
DELTA 2 R/B (1) 3.7 21:53:27 10° WNW 21:58:51 62° SW 21:58:51 62° SW
SPOT 5 3.4 22:05:07 50° NNE 22:05:07 50° NNE 22:08:47 10° N
Cosmos 1244 Rocket 4.3 22:04:17 76° SSE 22:04:47 84° E 22:10:57 10° N
Aureole 3 Rocket 4.4 21:59:52 10° N 22:08:07 57° ENE 22:08:13 57° E
MetOp-A 4.2 22:08:43 69° WSW 22:08:51 69° WSW 22:14:12 10° NNW
Lacrosse 5 3.0 22:07:48 10° WSW 22:12:34 41° NW 22:17:23 10° NNE
H-2A R/B 2.7 22:22:13 48° N 22:22:13 48° N 22:25:50 10° N
ERS-1 Rocket 4.1 22:26:17 38° W 22:26:17 38° W 22:30:50 10° NNW
ARGOS 3.7 22:27:31 55° WNW 22:27:31 55° WNW 22:32:15 10° NNW
Lacrosse 5 rocket 4.2 22:26:56 10° W 22:27:15 11° W 22:27:15 11° W
Cosmos 2278 Rocket 4.4 22:29:44 10° NNE 22:31:25 14° NE 22:31:25 14° NE
Cosmos 2263 Rocket 3.3 22:30:20 10° NW 22:35:21 37° W 22:35:21 37° W
Cosmos 1607 4.3 22:31:13 10° NW 22:37:06 60° W 22:37:06 60° W
USA 238 DEB 4.0 22:30:46 10° NNW 22:37:17 59° NE 22:37:17 59° NE
USA 238 4.0 22:30:52 10° NNW 22:37:23 59° NE 22:37:23 59° NE
Cosmos 1844 Rocket 4.0 22:38:40 10° N 22:42:07 33° NNE 22:42:07 33° NNE
Cosmos 2219 Rocket 4.2 22:56:05 19° NNE 22:56:05 19° NNE 22:57:39 10° NNE
COSMOS 2428 4.0 22:58:58 36° N 22:58:58 36° N 23:02:28 10° NNE
ATLAS 3B R/B 3.1 22:53:14 10° NNW 22:58:22 56° NW 22:58:22 56° NW
Terra 4.0 23:03:30 23° NNW 23:03:30 23° NNW 23:05:14 10° NNW
Cosmos 2360 Rocket 4.4 23:01:27 10° WSW 23:05:36 21° WNW 23:09:45 10° N
Cosmos 2333 Rocket 4.3 23:14:46 18° NNE 23:14:46 18° NNE 23:16:11 10° NNE
CENTAUR R/B 4.2 23:45:16 10° NNW 23:51:46 34° NE 23:51:46 34° NE
